| time (UTC) | temp F | wind direction | speed knots | gust knots | rain 1hr in | rain 24hr in | rain mn in | humidity % | barometer mb |
| 20260503190733 | 59 | 5 | 4.3 | 17.4 | 0.00 | 0.00 | 0.00 | 37 | 1010.8 |
| 20260503190221 | 59 | 304 | 6.1 | 17.4 | 0.00 | 0.00 | 0.00 | 38 | 1010.9 |
| 20260503185733 | 59 | 325 | 9.6 | 13.9 | 0.00 | 0.00 | 0.00 | 37 | 1010.9 |
| 20260503185222 | 59 | 274 | 3.5 | 13.0 | 0.00 | 0.00 | 0.00 | 39 | 1010.9 |
| 20260503184739 | 59 | 309 | 6.1 | 13.0 | 0.00 | 0.00 | 0.00 | 40 | 1011.1 |
| 20260503184230 | 59 | 261 | 7.0 | 11.3 | 0.00 | 0.00 | 0.00 | 39 | 1011.1 |
| 20260503183741 | 59 | 340 | 4.3 | 11.3 | 0.00 | 0.00 | 0.00 | 40 | 1011.1 |
| 20260503183231 | 59 | 270 | 5.2 | 11.3 | 0.00 | 0.00 | 0.00 | 40 | 1011.2 |
| 20260503182737 | 58 | 280 | 5.2 | 5.2 | 0.00 | 0.00 | 0.00 | 39 | 1011.2 |
| 20260503182225 | 58 | 63 | 3.5 | 3.5 | 0.00 | 0.00 | 0.00 | 43 | 1011.4 |
| 20260503181740 | 57 | 283 | 1.7 | 1.7 | 0.00 | 0.00 | 0.00 | 41 | 1011.4 |
| 20260503181229 | 57 | 296 | 7.8 | 7.8 | 0.00 | 0.00 | 0.00 | 40 | 1011.4 |
| 20260503180740 | 57 | 224 | 3.5 | 3.5 | 0.00 | 0.00 | 0.00 | 42 | 1011.4 |
| 20260503180231 | 57 | 289 | 4.3 | 4.3 | 0.00 | 0.00 | 0.00 | 45 | 1011.4 |
| 20260503175727 | 57 | 259 | 0.9 | 0.9 | 0.00 | 0.00 | 0.00 | 41 | 1011.4 |
| 20260503175237 | 56 | 274 | 0.9 | 11.3 | 0.00 | 0.00 | 0.00 | 45 | 1011.4 |
| 20260503174802 | 55 | 276 | 11.3 | 11.3 | 0.00 | 0.00 | 0.00 | 45 | 1011.4 |
| 20260503174303 | 55 | 267 | 10.4 | 10.4 | 0.00 | 0.00 | 0.00 | 44 | 1011.5 |
| 20260503173743 | 56 | 302 | 5.2 | 5.2 | 0.00 | 0.00 | 0.00 | 42 | 1011.5 |
| 20260503173229 | 56 | 294 | 5.2 | 7.0 | 0.00 | 0.00 | 0.00 | 43 | 1011.4 |
| 20260503172751 | 56 | 270 | 7.0 | 7.0 | 0.00 | 0.00 | 0.00 | 43 | 1011.5 |
| 20260503172252 | 56 | 323 | 1.7 | 1.7 | 0.00 | 0.00 | 0.00 | 46 | 1011.5 |
| 20260503171732 | 56 | 315 | 1.7 | 6.1 | 0.00 | 0.00 | 0.00 | 44 | 1011.6 |
| 20260503171235 | 55 | 277 | 6.1 | 6.1 | 0.00 | 0.00 | 0.00 | 44 | 1011.6 |
| 20260503170722 | 55 | 292 | 5.2 | 5.2 | 0.00 | 0.00 | 0.00 | 44 | 1011.5 |
| 20260503170256 | 55 | 304 | 3.5 | 4.3 | 0.00 | 0.00 | 0.00 | 44 | 1011.5 |
| 20260503150758 | 52 | 355 | 7.0 | 9.6 | 0.00 | 0.00 | 0.00 | 51 | 1012.1 |
| 20260503150301 | 52 | 13 | 9.6 | 9.6 | 0.00 | 0.00 | 0.00 | 50 | 1012.2 |
| 20260503140221 | 51 | 295 | 3.5 | 3.5 | 0.00 | 0.00 | 0.00 | 51 | 1012.1 |
| 20260503130729 | 49 | 331 | 4.3 | 7.0 | 0.00 | 0.00 | 0.00 | 57 | 1011.9 |